Year,Month,Day,Hour,Minute,Value (Times are PST for temperature in C)
2013,09,08,00,00,14.60
2013,09,08,00,01,14.60
2013,09,08,00,02,14.60
2013,09,08,00,03,14.60
2013,09,08,00,04,14.50
2013,09,08,00,05,14.50
2013,09,08,00,06,14.50
2013,09,08,00,07,14.50
2013,09,08,00,08,14.50
2013,09,08,00,09,14.50
2013,09,08,00,10,14.40
2013,09,08,00,11,14.40
2013,09,08,00,12,14.40
2013,09,08,00,13,14.40
2013,09,08,00,14,14.40
2013,09,08,00,15,14.40
2013,09,08,00,16,14.40
2013,09,08,00,17,14.40
2013,09,08,00,18,14.40
2013,09,08,00,19,14.40
2013,09,08,00,20,14.40
2013,09,08,00,21,14.40
2013,09,08,00,22,14.40
2013,09,08,00,23,14.30
2013,09,08,00,24,14.30
2013,09,08,00,25,14.30
2013,09,08,00,26,14.30
2013,09,08,00,27,14.30
2013,09,08,00,28,14.30
2013,09,08,00,29,14.30
2013,09,08,00,30,14.30
2013,09,08,00,31,14.30
2013,09,08,00,32,14.30
2013,09,08,00,33,14.30
2013,09,08,00,34,14.30
2013,09,08,00,35,14.30
2013,09,08,00,36,14.40
2013,09,08,00,37,14.40
2013,09,08,00,38,14.40
2013,09,08,00,39,14.40
2013,09,08,00,40,14.40
2013,09,08,00,41,14.40
2013,09,08,00,42,14.40
2013,09,08,00,43,14.30
2013,09,08,00,44,14.30
2013,09,08,00,45,14.40
2013,09,08,00,46,14.40
2013,09,08,00,47,14.40
2013,09,08,00,48,14.30
2013,09,08,00,49,14.40
2013,09,08,00,50,14.30
2013,09,08,00,51,14.30
2013,09,08,00,52,14.30
2013,09,08,00,53,14.30
2013,09,08,00,54,14.30
2013,09,08,00,55,14.30
2013,09,08,00,56,14.30
2013,09,08,00,57,14.30
2013,09,08,00,58,14.20
2013,09,08,00,59,14.20
2013,09,08,01,00,14.20
2013,09,08,01,01,14.20
2013,09,08,01,02,14.20
2013,09,08,01,03,14.10
2013,09,08,01,04,14.10
2013,09,08,01,05,14.10
2013,09,08,01,06,14.10
2013,09,08,01,07,14.00
2013,09,08,01,08,14.00
2013,09,08,01,09,14.00
2013,09,08,01,10,14.00
2013,09,08,01,11,14.00
2013,09,08,01,12,14.10
2013,09,08,01,13,14.10
2013,09,08,01,14,14.10
2013,09,08,01,15,14.10
2013,09,08,01,16,14.10
2013,09,08,01,17,14.10
2013,09,08,01,18,14.10
2013,09,08,01,19,14.10
2013,09,08,01,20,14.10
2013,09,08,01,21,14.20
2013,09,08,01,22,14.20
2013,09,08,01,23,14.20
2013,09,08,01,24,14.20
2013,09,08,01,25,14.20
2013,09,08,01,26,14.20
2013,09,08,01,27,14.20
2013,09,08,01,28,14.20
2013,09,08,01,29,14.20
2013,09,08,01,30,14.20
2013,09,08,01,31,14.10
2013,09,08,01,32,14.10
2013,09,08,01,33,14.10
2013,09,08,01,34,14.10
2013,09,08,01,35,14.10
2013,09,08,01,36,14.00
2013,09,08,01,37,14.00
2013,09,08,01,38,14.00
2013,09,08,01,39,14.00
2013,09,08,01,40,14.00
2013,09,08,01,41,14.10
2013,09,08,01,42,14.10
2013,09,08,01,43,14.10
2013,09,08,01,44,14.10
2013,09,08,01,45,14.10
2013,09,08,01,46,14.20
2013,09,08,01,47,14.20
2013,09,08,01,48,14.20
2013,09,08,01,49,14.20
2013,09,08,01,50,14.30
2013,09,08,01,51,14.30
2013,09,08,01,52,14.30
2013,09,08,01,53,14.30
2013,09,08,01,54,14.30
2013,09,08,01,55,14.30
2013,09,08,01,56,14.30
2013,09,08,01,57,14.30
2013,09,08,01,58,14.30
2013,09,08,01,59,14.30
2013,09,08,02,00,14.30
2013,09,08,02,01,14.20
2013,09,08,02,02,14.10
2013,09,08,02,03,14.00
2013,09,08,02,04,13.90
2013,09,08,02,05,13.90
2013,09,08,02,06,13.80
2013,09,08,02,07,13.80
2013,09,08,02,08,13.80
2013,09,08,02,09,13.80
2013,09,08,02,10,13.80
2013,09,08,02,11,13.80
2013,09,08,02,12,13.80
2013,09,08,02,13,13.80
2013,09,08,02,14,13.90
2013,09,08,02,15,13.90
2013,09,08,02,16,13.90
2013,09,08,02,17,13.90
2013,09,08,02,18,13.90
2013,09,08,02,19,13.90
2013,09,08,02,20,13.80
2013,09,08,02,21,13.80
2013,09,08,02,22,13.80
2013,09,08,02,23,13.80
2013,09,08,02,24,13.80
2013,09,08,02,25,13.90
2013,09,08,02,26,13.90
2013,09,08,02,27,13.90
2013,09,08,02,28,13.90
2013,09,08,02,29,13.90
2013,09,08,02,30,14.00
2013,09,08,02,31,14.00
2013,09,08,02,32,14.10
2013,09,08,02,33,14.10
2013,09,08,02,34,14.10
2013,09,08,02,35,14.10
2013,09,08,02,36,14.00
2013,09,08,02,37,14.00
2013,09,08,02,38,13.90
2013,09,08,02,39,13.90
2013,09,08,02,40,13.80
2013,09,08,02,41,13.80
2013,09,08,02,42,13.80
2013,09,08,02,43,13.70
2013,09,08,02,44,13.70
2013,09,08,02,45,13.80
2013,09,08,02,46,13.80
2013,09,08,02,47,13.80
2013,09,08,02,48,13.80
2013,09,08,02,49,13.70
2013,09,08,02,50,13.70
2013,09,08,02,51,13.70
2013,09,08,02,52,13.70
2013,09,08,02,53,13.70
2013,09,08,02,54,13.70
2013,09,08,02,55,13.70
2013,09,08,02,56,13.70
2013,09,08,02,57,13.60
2013,09,08,02,58,13.60
2013,09,08,02,59,13.60
2013,09,08,03,00,13.60
2013,09,08,03,01,13.50
2013,09,08,03,02,13.50
2013,09,08,03,06,13.40
2013,09,08,03,07,13.40
2013,09,08,03,08,13.40
2013,09,08,03,09,13.30
2013,09,08,03,10,13.30
2013,09,08,03,11,13.30
2013,09,08,03,12,13.30
2013,09,08,03,13,13.20
2013,09,08,03,14,13.20
2013,09,08,03,15,13.20
2013,09,08,03,16,13.20
2013,09,08,03,17,13.20
2013,09,08,03,18,13.20
2013,09,08,03,19,13.20
2013,09,08,03,20,13.10
2013,09,08,03,21,13.10
2013,09,08,03,22,13.10
2013,09,08,03,23,13.10
2013,09,08,03,24,13.10
2013,09,08,03,25,13.10
2013,09,08,03,26,13.10
2013,09,08,03,27,13.10
2013,09,08,03,28,13.20
2013,09,08,03,29,13.20
2013,09,08,03,30,13.20
2013,09,08,03,31,13.20
2013,09,08,03,32,13.20
2013,09,08,03,33,13.10
2013,09,08,03,34,13.10
2013,09,08,03,35,13.10
2013,09,08,03,36,13.10
2013,09,08,03,37,13.00
2013,09,08,03,38,13.00
2013,09,08,03,39,13.00
2013,09,08,03,40,12.90
2013,09,08,03,41,12.90
2013,09,08,03,42,12.90
2013,09,08,03,43,12.90
2013,09,08,03,44,12.90
2013,09,08,03,45,12.90
2013,09,08,03,46,12.90
2013,09,08,03,47,12.90
2013,09,08,03,48,12.90
2013,09,08,03,49,12.90
2013,09,08,03,50,12.80
2013,09,08,03,51,12.80
2013,09,08,03,52,12.80
2013,09,08,03,53,12.80
2013,09,08,03,54,12.80
2013,09,08,03,55,12.80
2013,09,08,03,56,12.80
2013,09,08,03,57,12.80
2013,09,08,03,58,12.80
2013,09,08,03,59,12.70
2013,09,08,04,00,12.70
2013,09,08,04,01,12.70
2013,09,08,04,02,12.70
2013,09,08,04,03,12.70
2013,09,08,04,04,12.70
2013,09,08,04,05,12.70
2013,09,08,04,06,12.70
2013,09,08,04,07,12.70
2013,09,08,04,08,12.70
2013,09,08,04,09,12.70
2013,09,08,04,10,12.70
2013,09,08,04,11,12.70
2013,09,08,04,12,12.60
2013,09,08,04,13,12.60
2013,09,08,04,14,12.60
2013,09,08,04,15,12.60
2013,09,08,04,16,12.60
2013,09,08,04,17,12.60
2013,09,08,04,18,12.60
2013,09,08,04,19,12.60
2013,09,08,04,20,12.60
2013,09,08,04,21,12.50
2013,09,08,04,22,12.50
2013,09,08,04,23,12.50
2013,09,08,04,24,12.60
2013,09,08,04,25,12.60
2013,09,08,04,26,12.60
2013,09,08,04,27,12.60
2013,09,08,04,28,12.70
2013,09,08,04,29,12.70
2013,09,08,04,30,12.70
2013,09,08,04,31,12.70
2013,09,08,04,32,12.70
2013,09,08,04,33,12.70
2013,09,08,04,34,12.70
2013,09,08,04,35,12.60
2013,09,08,04,36,12.60
2013,09,08,04,37,12.60
2013,09,08,04,38,12.60
2013,09,08,04,39,12.50
2013,09,08,04,40,12.50
2013,09,08,04,41,12.50
2013,09,08,04,42,12.50
2013,09,08,04,43,12.50
2013,09,08,04,44,12.50
2013,09,08,04,45,12.40
2013,09,08,04,46,12.40
2013,09,08,04,47,12.40
2013,09,08,04,48,12.40
2013,09,08,04,49,12.40
2013,09,08,04,50,12.40
2013,09,08,04,51,12.40
2013,09,08,04,52,12.40
2013,09,08,04,53,12.40
2013,09,08,04,54,12.40
2013,09,08,04,55,12.40
2013,09,08,04,56,12.40
2013,09,08,04,57,12.40
2013,09,08,04,58,12.40
2013,09,08,04,59,12.40
2013,09,08,05,00,12.40
2013,09,08,05,01,12.40
2013,09,08,05,02,12.40
2013,09,08,05,03,12.40
2013,09,08,05,04,12.40
2013,09,08,05,05,12.40
2013,09,08,05,06,12.40
2013,09,08,05,07,12.40
2013,09,08,05,08,12.40
2013,09,08,05,09,12.30
2013,09,08,05,10,12.30
2013,09,08,05,11,12.30
2013,09,08,05,12,12.30
2013,09,08,05,13,12.30
2013,09,08,05,14,12.30
2013,09,08,05,15,12.20
2013,09,08,05,16,12.30
2013,09,08,05,17,12.30
2013,09,08,05,18,12.30
2013,09,08,05,19,12.30
2013,09,08,05,20,12.30
2013,09,08,05,21,12.30
2013,09,08,05,22,12.30
2013,09,08,05,23,12.40
2013,09,08,05,24,12.30
2013,09,08,05,25,12.30
2013,09,08,05,26,12.30
2013,09,08,05,27,12.30
2013,09,08,05,28,12.30
2013,09,08,05,29,12.30
2013,09,08,05,30,12.30
2013,09,08,05,31,12.30
2013,09,08,05,32,12.30
2013,09,08,05,33,12.30
2013,09,08,05,34,12.30
2013,09,08,05,35,12.30
2013,09,08,05,36,12.30
2013,09,08,05,37,12.30
2013,09,08,05,38,12.30
2013,09,08,05,39,12.30
2013,09,08,05,40,12.30
2013,09,08,05,41,12.30
2013,09,08,05,42,12.30
2013,09,08,05,43,12.30
2013,09,08,05,44,12.30
2013,09,08,05,45,12.30
2013,09,08,05,46,12.30
2013,09,08,05,47,12.20
2013,09,08,05,48,12.20
2013,09,08,05,49,12.20
2013,09,08,05,50,12.20
2013,09,08,05,51,12.10
2013,09,08,05,52,12.10
2013,09,08,05,53,12.10
2013,09,08,05,54,12.10
2013,09,08,05,55,12.10
2013,09,08,05,56,12.10
2013,09,08,05,57,12.10
2013,09,08,05,58,12.10
2013,09,08,05,59,12.10
2013,09,08,06,00,12.10
2013,09,08,06,01,12.10
2013,09,08,06,02,12.10
2013,09,08,06,03,12.10
2013,09,08,06,04,12.10
2013,09,08,06,05,12.10
2013,09,08,06,06,12.10
2013,09,08,06,07,12.10
2013,09,08,06,08,12.10
2013,09,08,06,09,12.10
2013,09,08,06,10,12.10
2013,09,08,06,11,12.10
2013,09,08,06,12,12.00
2013,09,08,06,13,12.00
2013,09,08,06,14,12.00
2013,09,08,06,15,12.00
2013,09,08,06,16,12.00
2013,09,08,06,17,12.00
2013,09,08,06,18,12.00
2013,09,08,06,19,12.00
2013,09,08,06,20,12.00
2013,09,08,06,21,12.00
2013,09,08,06,22,12.10
2013,09,08,06,23,12.10
2013,09,08,06,24,12.00
2013,09,08,06,25,12.00
2013,09,08,06,26,12.00
2013,09,08,06,27,12.00
2013,09,08,06,28,12.00
2013,09,08,06,29,11.90
2013,09,08,06,30,11.90
2013,09,08,06,31,11.90
2013,09,08,06,32,11.90
2013,09,08,06,33,11.90
2013,09,08,06,34,12.00
2013,09,08,06,35,12.00
2013,09,08,06,36,12.00
2013,09,08,06,37,12.00
2013,09,08,06,38,12.10
2013,09,08,06,39,12.10
2013,09,08,06,40,12.10
2013,09,08,06,41,12.10
2013,09,08,06,42,12.00
2013,09,08,06,43,12.00
2013,09,08,06,44,12.00
2013,09,08,06,45,11.90
2013,09,08,06,46,11.90
2013,09,08,06,47,11.90
2013,09,08,06,48,11.90
2013,09,08,06,49,11.90
2013,09,08,06,50,11.90
2013,09,08,06,51,12.00
2013,09,08,06,52,12.00
2013,09,08,06,53,12.00
2013,09,08,06,54,12.00
2013,09,08,06,55,12.00
2013,09,08,06,56,12.00
2013,09,08,06,57,12.00
2013,09,08,06,58,12.00
2013,09,08,06,59,12.00
2013,09,08,07,00,12.00
2013,09,08,07,01,12.00
2013,09,08,07,02,12.10
2013,09,08,07,03,12.10
2013,09,08,07,04,12.10
2013,09,08,07,05,12.00
2013,09,08,07,06,12.00
2013,09,08,07,07,12.00
2013,09,08,07,08,12.00
2013,09,08,07,09,12.00
2013,09,08,07,10,12.00
2013,09,08,07,11,12.10
2013,09,08,07,12,12.00
2013,09,08,07,13,12.00
2013,09,08,07,14,12.00
2013,09,08,07,15,12.00
2013,09,08,07,16,12.00
2013,09,08,07,17,11.90
2013,09,08,07,18,11.90
2013,09,08,07,19,11.90
2013,09,08,07,20,11.90
2013,09,08,07,21,11.90
2013,09,08,07,22,11.90
2013,09,08,07,23,12.00
2013,09,08,07,24,12.00
2013,09,08,07,25,12.00
2013,09,08,07,26,12.00
2013,09,08,07,27,12.00
2013,09,08,07,28,12.10
2013,09,08,07,29,12.10
2013,09,08,07,30,12.10
2013,09,08,07,31,12.20
2013,09,08,07,32,12.20
2013,09,08,07,33,12.20
2013,09,08,07,34,12.20
2013,09,08,07,35,12.20
2013,09,08,07,36,12.20
2013,09,08,07,37,12.20
2013,09,08,07,38,12.20
2013,09,08,07,39,12.20
2013,09,08,07,40,12.20
2013,09,08,07,41,12.20
2013,09,08,07,42,12.20
2013,09,08,07,43,12.20
2013,09,08,07,44,12.20
2013,09,08,07,45,12.20
2013,09,08,07,46,12.20
2013,09,08,07,47,12.20
2013,09,08,07,48,12.20
2013,09,08,07,49,12.20
2013,09,08,07,50,12.30
2013,09,08,07,51,12.30
2013,09,08,07,52,12.30
2013,09,08,07,53,12.30
2013,09,08,07,54,12.40
2013,09,08,07,55,12.40
2013,09,08,07,56,12.40
2013,09,08,07,57,12.40
2013,09,08,07,58,12.40
2013,09,08,07,59,12.50
2013,09,08,08,00,12.50
2013,09,08,08,01,12.50
2013,09,08,08,02,12.60
2013,09,08,08,03,12.60
2013,09,08,08,04,12.60
2013,09,08,08,05,12.70
2013,09,08,08,06,12.70
2013,09,08,08,07,12.80
2013,09,08,08,08,12.80
2013,09,08,08,09,12.80
2013,09,08,08,10,12.80
2013,09,08,08,11,12.90
2013,09,08,08,12,12.90
2013,09,08,08,13,13.00
2013,09,08,08,14,13.00
2013,09,08,08,15,13.10
2013,09,08,08,16,13.10
2013,09,08,08,17,13.10
2013,09,08,08,18,13.20
2013,09,08,08,19,13.20
2013,09,08,08,20,13.30
2013,09,08,08,21,13.30
2013,09,08,08,22,13.40
2013,09,08,08,23,13.40
2013,09,08,08,24,13.40
2013,09,08,08,25,13.50
2013,09,08,08,26,13.50
2013,09,08,08,27,13.60
2013,09,08,08,28,13.60
2013,09,08,08,29,13.70
2013,09,08,08,30,13.70
2013,09,08,08,31,13.70
2013,09,08,08,32,13.80
2013,09,08,08,33,13.80
2013,09,08,08,34,13.80
2013,09,08,08,35,13.90
2013,09,08,08,36,13.90
2013,09,08,08,37,13.90
2013,09,08,08,38,14.00
2013,09,08,08,39,14.00
2013,09,08,08,40,14.10
2013,09,08,08,41,14.10
2013,09,08,08,42,14.20
2013,09,08,08,43,14.20
2013,09,08,08,44,14.20
2013,09,08,08,45,14.20
2013,09,08,08,46,14.30
2013,09,08,08,47,14.30
2013,09,08,08,48,14.30
2013,09,08,08,49,14.40
2013,09,08,08,50,14.50
2013,09,08,08,51,14.60
2013,09,08,08,52,14.70
2013,09,08,08,53,14.70
2013,09,08,08,54,14.80
2013,09,08,08,55,14.80
2013,09,08,08,56,14.90
2013,09,08,08,57,14.90
2013,09,08,08,58,15.00
2013,09,08,08,59,15.00
2013,09,08,09,00,15.10
2013,09,08,09,01,15.10
2013,09,08,09,02,15.20
2013,09,08,09,03,15.20
2013,09,08,09,04,15.30
2013,09,08,09,05,15.40
2013,09,08,09,06,15.40
2013,09,08,09,07,15.50
2013,09,08,09,08,15.60
2013,09,08,09,09,15.70
2013,09,08,09,10,15.70
2013,09,08,09,11,15.80
2013,09,08,09,12,15.90
2013,09,08,09,13,15.90
2013,09,08,09,14,16.00
2013,09,08,09,15,16.10
2013,09,08,09,16,16.20
2013,09,08,09,17,16.20
2013,09,08,09,18,16.30
2013,09,08,09,19,16.30
2013,09,08,09,20,16.40
2013,09,08,09,21,16.40
2013,09,08,09,22,16.50
2013,09,08,09,23,16.60
2013,09,08,09,24,16.60
2013,09,08,09,25,16.70
2013,09,08,09,26,16.70
2013,09,08,09,27,16.80
2013,09,08,09,28,16.80
2013,09,08,09,29,16.90
2013,09,08,09,30,17.00
2013,09,08,09,31,17.10
2013,09,08,09,32,17.20
2013,09,08,09,33,17.20
2013,09,08,09,34,17.30
2013,09,08,09,35,17.40
2013,09,08,09,36,17.50
2013,09,08,09,37,17.60
2013,09,08,09,38,17.70
2013,09,08,09,39,17.80
2013,09,08,09,40,17.80
2013,09,08,09,41,17.90
2013,09,08,09,42,17.90
2013,09,08,09,43,18.00
2013,09,08,09,44,18.10
2013,09,08,09,45,18.20
2013,09,08,09,46,18.30
2013,09,08,09,47,18.40
2013,09,08,09,48,18.60
2013,09,08,09,49,18.70
2013,09,08,09,50,18.80
2013,09,08,09,51,18.90
2013,09,08,09,52,19.00
2013,09,08,09,53,19.10
2013,09,08,09,54,19.20
2013,09,08,09,55,19.30
2013,09,08,09,56,19.40
2013,09,08,09,57,19.50
2013,09,08,09,58,19.60
2013,09,08,09,59,19.80
2013,09,08,10,00,19.90
2013,09,08,10,01,20.00
2013,09,08,10,02,20.10
2013,09,08,10,03,20.20
2013,09,08,10,04,20.30
2013,09,08,10,05,20.40
2013,09,08,10,06,20.50
2013,09,08,10,07,20.60
2013,09,08,10,08,20.70
2013,09,08,10,09,20.80
2013,09,08,10,10,20.90
2013,09,08,10,11,21.00
2013,09,08,10,12,21.10
2013,09,08,10,13,21.10
2013,09,08,10,14,21.20
2013,09,08,10,15,21.20
2013,09,08,10,16,21.20
2013,09,08,10,17,21.20
2013,09,08,10,18,21.30
2013,09,08,10,19,21.30
2013,09,08,10,20,21.30
2013,09,08,10,21,21.40
2013,09,08,10,22,21.40
2013,09,08,10,23,21.40
2013,09,08,10,24,21.40
2013,09,08,10,25,21.40
2013,09,08,10,26,21.40
2013,09,08,10,27,21.40
2013,09,08,10,28,21.50
2013,09,08,10,29,21.40
2013,09,08,10,30,21.40
2013,09,08,10,31,21.50
2013,09,08,10,32,21.50
2013,09,08,10,33,21.50
2013,09,08,10,34,21.50
2013,09,08,10,35,21.50
2013,09,08,10,36,21.50
2013,09,08,10,37,21.50
2013,09,08,10,38,21.60
2013,09,08,10,39,21.60
2013,09,08,10,40,21.70
2013,09,08,10,41,21.80
2013,09,08,10,42,21.80
2013,09,08,10,43,21.80
2013,09,08,10,44,21.80
2013,09,08,10,45,21.80
2013,09,08,10,46,21.80
2013,09,08,10,47,21.80
2013,09,08,10,48,21.80
2013,09,08,10,49,21.80
2013,09,08,10,50,21.80
2013,09,08,10,51,21.80
2013,09,08,10,52,21.80
2013,09,08,10,53,21.70
2013,09,08,10,54,21.60
2013,09,08,10,55,21.50
2013,09,08,10,56,21.40
2013,09,08,10,57,21.40
2013,09,08,10,58,21.30
2013,09,08,10,59,21.40
2013,09,08,11,00,21.40
2013,09,08,11,01,21.50
2013,09,08,11,02,21.60
2013,09,08,11,03,21.60
2013,09,08,11,04,21.60
2013,09,08,11,05,21.60
2013,09,08,11,06,21.50
2013,09,08,11,07,21.40
2013,09,08,11,08,21.30
2013,09,08,11,09,21.20
2013,09,08,11,10,21.10
2013,09,08,11,11,21.10
2013,09,08,11,12,21.00
2013,09,08,11,13,21.00
2013,09,08,11,14,21.00
2013,09,08,11,15,21.10
2013,09,08,11,16,21.10
2013,09,08,11,17,21.20
2013,09,08,11,18,21.20
2013,09,08,11,19,21.20
2013,09,08,11,20,21.30
2013,09,08,11,21,21.30
2013,09,08,11,22,21.30
2013,09,08,11,23,21.40
2013,09,08,11,24,21.40
2013,09,08,11,25,21.40
2013,09,08,11,26,21.30
2013,09,08,11,27,21.30
2013,09,08,11,28,21.20
2013,09,08,11,29,21.20
2013,09,08,11,30,21.20
2013,09,08,11,31,21.20
2013,09,08,11,32,21.20
2013,09,08,11,33,21.20
2013,09,08,11,34,21.30
2013,09,08,11,35,21.30
2013,09,08,11,36,21.30
2013,09,08,11,37,21.30
2013,09,08,11,38,21.30
2013,09,08,11,39,21.20
2013,09,08,11,40,21.20
2013,09,08,11,41,21.20
2013,09,08,11,42,21.20
2013,09,08,11,43,21.20
2013,09,08,11,44,21.30
2013,09,08,11,45,21.30
2013,09,08,11,46,21.40
2013,09,08,11,47,21.40
2013,09,08,11,48,21.40
2013,09,08,11,49,21.50
2013,09,08,11,50,21.60
2013,09,08,11,51,21.70
2013,09,08,11,52,21.70
2013,09,08,11,53,21.80
2013,09,08,11,54,21.80
2013,09,08,11,55,21.80
2013,09,08,11,56,21.80
2013,09,08,11,57,21.80
2013,09,08,11,58,21.70
2013,09,08,11,59,21.70
2013,09,08,12,00,21.70
2013,09,08,12,01,21.70
2013,09,08,12,02,21.70
2013,09,08,12,03,21.70
2013,09,08,12,04,21.70
2013,09,08,12,05,21.70
2013,09,08,12,06,21.80
2013,09,08,12,07,21.80
2013,09,08,12,08,21.80
2013,09,08,12,09,21.80
2013,09,08,12,10,21.80
2013,09,08,12,11,21.90
2013,09,08,12,12,21.90
2013,09,08,12,13,21.90
2013,09,08,12,14,22.00
2013,09,08,12,15,22.10
2013,09,08,12,16,22.30
2013,09,08,12,17,22.30
2013,09,08,12,18,22.20
2013,09,08,12,19,22.20
2013,09,08,12,20,22.10
2013,09,08,12,21,22.10
2013,09,08,12,22,22.10
2013,09,08,12,23,22.00
2013,09,08,12,24,21.90
2013,09,08,12,25,21.80
2013,09,08,12,26,21.80
2013,09,08,12,27,21.70
2013,09,08,12,28,21.70
2013,09,08,12,29,21.70
2013,09,08,12,30,21.70
2013,09,08,12,31,21.70
2013,09,08,12,32,21.80
2013,09,08,12,33,21.90
2013,09,08,12,34,21.90
2013,09,08,12,35,22.00
2013,09,08,12,36,22.00
2013,09,08,12,37,22.00
2013,09,08,12,38,22.10
2013,09,08,12,39,22.10
2013,09,08,12,40,22.10
2013,09,08,12,41,22.10
2013,09,08,12,42,22.10
2013,09,08,12,43,22.20
2013,09,08,12,44,22.30
2013,09,08,12,45,22.40
2013,09,08,12,46,22.50
2013,09,08,12,47,22.60
2013,09,08,12,48,22.60
2013,09,08,12,49,22.60
2013,09,08,12,50,22.60
2013,09,08,12,51,22.50
2013,09,08,12,52,22.50
2013,09,08,12,53,22.40
2013,09,08,12,54,22.40
2013,09,08,12,55,22.30
2013,09,08,12,56,22.30
2013,09,08,12,57,22.20
2013,09,08,12,58,22.20
2013,09,08,12,59,22.30
2013,09,08,13,00,22.40
2013,09,08,13,01,22.40
2013,09,08,13,02,22.40
2013,09,08,13,03,22.50
2013,09,08,13,04,22.50
2013,09,08,13,05,22.60
2013,09,08,13,06,22.60
2013,09,08,13,07,22.70
2013,09,08,13,08,22.80
2013,09,08,13,09,22.80
2013,09,08,13,10,22.80
2013,09,08,13,11,22.70
2013,09,08,13,12,22.60
2013,09,08,13,13,22.40
2013,09,08,13,14,22.30
2013,09,08,13,15,22.20
2013,09,08,13,16,22.10
2013,09,08,13,17,22.10
2013,09,08,13,18,22.20
2013,09,08,13,19,22.20
2013,09,08,13,20,22.20
2013,09,08,13,21,22.20
2013,09,08,13,22,22.20
2013,09,08,13,23,22.30
2013,09,08,13,24,22.30
2013,09,08,13,25,22.30
2013,09,08,13,26,22.30
2013,09,08,13,27,22.20
2013,09,08,13,28,22.20
2013,09,08,13,29,22.10
2013,09,08,13,30,22.00
2013,09,08,13,31,21.90
2013,09,08,13,32,21.80
2013,09,08,13,33,21.70
2013,09,08,13,34,21.70
2013,09,08,13,35,21.70
2013,09,08,13,36,21.70
2013,09,08,13,37,21.70
2013,09,08,13,38,21.70
2013,09,08,13,39,21.70
2013,09,08,13,40,21.70
2013,09,08,13,41,21.70
2013,09,08,13,42,21.70
2013,09,08,13,43,21.80
2013,09,08,13,44,22.00
2013,09,08,13,45,22.10
2013,09,08,13,46,22.20
2013,09,08,13,47,22.20
2013,09,08,13,48,22.10
2013,09,08,13,49,22.10
2013,09,08,13,50,22.00
2013,09,08,13,51,21.90
2013,09,08,13,52,21.90
2013,09,08,13,53,21.90
2013,09,08,13,54,22.00
2013,09,08,13,55,22.10
2013,09,08,13,56,22.20
2013,09,08,13,57,22.30
2013,09,08,13,58,22.30
2013,09,08,13,59,22.20
2013,09,08,14,00,22.20
2013,09,08,14,01,22.20
2013,09,08,14,02,22.20
2013,09,08,14,03,22.20
2013,09,08,14,04,22.20
2013,09,08,14,05,22.20
2013,09,08,14,06,22.20
2013,09,08,14,07,22.20
2013,09,08,14,08,22.20
2013,09,08,14,09,22.20
2013,09,08,14,10,22.20
2013,09,08,14,11,22.20
2013,09,08,14,12,22.30
2013,09,08,14,13,22.40
2013,09,08,14,14,22.50
2013,09,08,14,15,22.60
2013,09,08,14,16,22.80
2013,09,08,14,17,22.80
2013,09,08,14,18,22.80
2013,09,08,14,19,22.80
2013,09,08,14,20,22.80
2013,09,08,14,21,22.90
2013,09,08,14,22,22.90
2013,09,08,14,23,22.90
2013,09,08,14,24,22.90
2013,09,08,14,25,22.90
2013,09,08,14,26,23.00
2013,09,08,14,27,23.10
2013,09,08,14,28,23.10
2013,09,08,14,29,23.10
2013,09,08,14,30,23.10
2013,09,08,14,31,22.90
2013,09,08,14,32,22.90
2013,09,08,14,33,22.80
2013,09,08,14,34,22.70
2013,09,08,14,35,22.60
2013,09,08,14,36,22.50
2013,09,08,14,37,22.40
2013,09,08,14,38,22.30
2013,09,08,14,39,22.30
2013,09,08,14,40,22.30
2013,09,08,14,41,22.30
2013,09,08,14,42,22.40
2013,09,08,14,43,22.40
2013,09,08,14,44,22.40
2013,09,08,14,45,22.40
2013,09,08,14,46,22.50
2013,09,08,14,47,22.50
2013,09,08,14,48,22.50
2013,09,08,14,49,22.50
2013,09,08,14,50,22.40
2013,09,08,14,51,22.40
2013,09,08,14,52,22.40
2013,09,08,14,53,22.40
2013,09,08,14,54,22.40
2013,09,08,14,55,22.50
2013,09,08,14,56,22.60
2013,09,08,14,57,22.60
2013,09,08,14,58,22.60
2013,09,08,14,59,22.60
2013,09,08,15,00,22.70
2013,09,08,15,01,22.80
2013,09,08,15,02,23.00
2013,09,08,15,03,23.10
2013,09,08,15,04,23.20
2013,09,08,15,05,23.30
2013,09,08,15,06,23.30
2013,09,08,15,07,23.30
2013,09,08,15,08,23.20
2013,09,08,15,09,23.10
2013,09,08,15,10,22.90
2013,09,08,15,11,22.80
2013,09,08,15,12,22.70
2013,09,08,15,13,22.60
2013,09,08,15,14,22.50
2013,09,08,15,15,22.50
2013,09,08,15,16,22.50
2013,09,08,15,17,22.50
2013,09,08,15,18,22.60
2013,09,08,15,19,22.70
2013,09,08,15,20,22.70
2013,09,08,15,21,22.70
2013,09,08,15,22,22.70
2013,09,08,15,23,22.70
2013,09,08,15,24,22.80
2013,09,08,15,25,22.90
2013,09,08,15,26,23.00
2013,09,08,15,27,23.10
2013,09,08,15,28,23.10
2013,09,08,15,29,23.20
2013,09,08,15,30,23.10
2013,09,08,15,31,23.00
2013,09,08,15,32,22.90
2013,09,08,15,33,22.80
2013,09,08,15,34,22.80
2013,09,08,15,35,22.80
2013,09,08,15,36,22.80
2013,09,08,15,37,22.80
2013,09,08,15,38,22.90
2013,09,08,15,39,22.90
2013,09,08,15,40,23.00
2013,09,08,15,41,23.10
2013,09,08,15,42,23.10
2013,09,08,15,43,23.20
2013,09,08,15,44,23.20
2013,09,08,15,45,23.20
2013,09,08,15,46,23.20
2013,09,08,15,47,23.30
2013,09,08,15,48,23.30
2013,09,08,15,49,23.30
2013,09,08,15,50,23.40
2013,09,08,15,51,23.40
2013,09,08,15,52,23.40
2013,09,08,15,53,23.40
2013,09,08,15,54,23.30
2013,09,08,15,55,23.20
2013,09,08,15,56,23.20
2013,09,08,15,57,23.20
2013,09,08,15,58,23.30
2013,09,08,15,59,23.30
2013,09,08,16,00,23.30
2013,09,08,16,01,23.30
2013,09,08,16,02,23.40
2013,09,08,16,03,23.40
2013,09,08,16,04,23.30
2013,09,08,16,05,23.40
2013,09,08,16,06,23.30
2013,09,08,16,07,23.30
2013,09,08,16,08,23.30
2013,09,08,16,09,23.30
2013,09,08,16,10,23.20
2013,09,08,16,11,23.20
2013,09,08,16,12,23.20
2013,09,08,16,13,23.20
2013,09,08,16,14,23.20
2013,09,08,16,15,23.10
2013,09,08,16,16,23.10
2013,09,08,16,17,22.90
2013,09,08,16,18,22.80
2013,09,08,16,19,22.70
2013,09,08,16,20,22.70
2013,09,08,16,21,22.60
2013,09,08,16,22,22.60
2013,09,08,16,23,22.60
2013,09,08,16,24,22.50
2013,09,08,16,25,22.40
2013,09,08,16,26,22.40
2013,09,08,16,27,22.30
2013,09,08,16,28,22.20
2013,09,08,16,29,22.20
2013,09,08,16,30,22.20
2013,09,08,16,31,22.20
2013,09,08,16,32,22.20
2013,09,08,16,33,22.20
2013,09,08,16,34,22.30
2013,09,08,16,35,22.30
2013,09,08,16,36,22.30
2013,09,08,16,37,22.30
2013,09,08,16,38,22.30
2013,09,08,16,39,22.30
2013,09,08,16,40,22.40
2013,09,08,16,41,22.40
2013,09,08,16,42,22.40
2013,09,08,16,43,22.40
2013,09,08,16,44,22.30
2013,09,08,16,45,22.20
2013,09,08,16,46,22.10
2013,09,08,16,47,22.00
2013,09,08,16,48,21.90
2013,09,08,16,49,21.90
2013,09,08,16,50,21.90
2013,09,08,16,51,22.00
2013,09,08,16,52,22.00
2013,09,08,16,53,22.10
2013,09,08,16,54,22.10
2013,09,08,16,55,22.10
2013,09,08,16,56,22.10
2013,09,08,16,57,22.10
2013,09,08,16,58,22.10
2013,09,08,16,59,22.10
2013,09,08,17,00,22.10
2013,09,08,17,01,22.10
2013,09,08,17,02,22.20
2013,09,08,17,03,22.20
2013,09,08,17,04,22.20
2013,09,08,17,05,22.20
2013,09,08,17,06,22.20
2013,09,08,17,07,22.10
2013,09,08,17,08,22.10
2013,09,08,17,09,22.20
2013,09,08,17,10,22.30
2013,09,08,17,11,22.40
2013,09,08,17,12,22.40
2013,09,08,17,13,22.50
2013,09,08,17,14,22.50
2013,09,08,17,15,22.50
2013,09,08,17,16,22.40
2013,09,08,17,17,22.40
2013,09,08,17,18,22.50
2013,09,08,17,19,22.60
2013,09,08,17,20,22.60
2013,09,08,17,21,22.70
2013,09,08,17,22,22.70